Date String (YYYY-MM-DD hh:mm:ss) UTC,Instrument flags,Ambient pressure (hPa),Sample flow (lpm),Bypass flow (lpm),Sample temperature (°C),Ambient temperature (°C),ASC tube jacket temperature (°C),LED temperature (°C),Box temperature (°C),Sample RH (%),Span deviation,Mass concentration (μg/m³),Mass concentration (μg/m³),Mass concentration (μg/m³)
DateTimeUTC,F1_M11,P_M11,Q1_M11,Q2_M11,T1_M11,T2_M11,T3_M11,T4_M11,T5_M11,U1_M11,ZSPAN_M11,X0_M11,X2_M11,X1_M11
2021-09-06 08:00:00,,0830.4,4.99,0.00,30.0,29.1,00.0,39.0,31.7,09.9,0002.2,0016.74,0011.16,0010.44
2021-09-06 08:01:00,,0830.3,4.99,0.00,30.0,29.1,00.0,39.0,31.8,09.9,0002.2,0017.27,0011.20,0010.48
2021-09-06 08:02:00,,0830.4,5.01,0.00,30.0,29.1,00.0,39.0,31.8,09.9,0002.0,0017.40,0011.16,0010.46
2021-09-06 08:03:00,,0830.4,5.00,0.00,30.1,29.1,00.0,39.1,31.8,09.9,0002.1,0017.86,0011.18,0010.48
2021-09-06 08:04:00,,0830.3,4.99,0.00,30.1,29.1,00.0,39.1,31.8,09.8,0002.7,0018.84,0011.22,0010.52
2021-09-06 08:05:00,,0830.3,5.01,0.00,30.1,29.2,00.0,39.1,31.8,09.8,0003.3,0018.45,0011.18,0010.51
2021-09-06 08:06:00,,0830.3,4.99,0.00,30.1,29.2,00.0,39.1,31.9,09.7,0003.7,0017.81,0011.11,0010.48
2021-09-06 08:07:00,,0830.3,5.00,0.00,30.1,29.2,00.0,39.1,31.9,09.7,0003.6,0017.64,0011.09,0010.49
2021-09-06 08:08:00,,0830.3,4.99,0.00,30.2,29.2,00.0,39.1,31.9,09.7,0004.3,0018.14,0011.06,0010.44
2021-09-06 08:09:00,,0830.3,5.02,0.00,30.2,29.2,00.0,39.2,31.9,09.6,0003.8,0018.26,0011.03,0010.41
2021-09-06 08:10:00,,0830.3,4.99,0.00,30.2,29.2,00.0,39.2,31.9,09.5,0003.2,0018.06,0010.94,0010.36
2021-09-06 08:11:00,,0830.3,4.99,0.00,30.2,29.2,00.0,39.2,31.9,09.5,0002.7,0017.88,0010.87,0010.33
2021-09-06 08:12:00,,0830.3,5.00,0.00,30.2,29.2,00.0,39.2,31.9,09.5,0002.3,0017.30,0010.86,0010.31
2021-09-06 08:13:00,,0830.3,5.00,0.00,30.2,27.5,00.0,39.2,31.5,09.6,0002.2,0016.84,0010.88,0010.36
2021-09-06 08:14:00,,0830.3,5.00,0.00,30.0,26.2,00.0,39.2,31.1,09.7,0002.2,0016.53,0010.91,0010.40
2021-09-06 08:15:00,,0830.2,5.00,0.00,29.9,26.3,00.0,39.1,31.1,09.7,0001.8,0015.72,0010.92,0010.39
2021-09-06 08:16:00,,0830.2,4.99,0.00,29.8,26.8,00.0,39.1,31.2,09.8,0001.8,0015.68,0011.00,0010.41
2021-09-06 08:17:00,,0830.2,5.00,0.00,29.7,27.2,00.0,39.0,31.2,09.9,0002.1,0015.86,0011.06,0010.46
2021-09-06 08:18:00,,0830.2,5.00,0.00,29.7,27.5,00.0,39.0,31.3,10.0,0002.7,0015.77,0011.06,0010.47
2021-09-06 08:19:00,,0830.2,4.99,0.00,29.7,27.8,00.0,39.0,31.4,10.0,0002.7,0015.65,0011.09,0010.50
2021-09-06 08:20:00,,0830.3,5.00,0.00,29.7,28.0,00.0,39.0,31.4,10.1,0003.3,0015.93,0011.14,0010.52
2021-09-06 08:21:00,,0830.2,5.00,0.00,29.8,28.2,00.0,39.0,31.5,10.5,0003.7,0016.52,0011.22,0010.57
2021-09-06 08:22:00,,0830.3,4.99,0.00,29.8,28.4,00.0,39.0,31.5,11.2,0004.0,0017.09,0011.28,0010.61
2021-09-06 08:23:00,,0830.2,5.00,0.00,29.8,28.5,00.0,38.9,31.5,11.4,0004.1,0017.13,0011.35,0010.67
2021-09-06 08:24:00,,0830.2,5.00,0.00,29.8,28.6,00.0,38.9,31.5,11.3,0004.4,0017.13,0011.36,0010.68
2021-09-06 08:25:00,,0830.1,4.99,0.00,29.8,28.7,00.0,38.9,31.6,11.1,0004.3,0017.71,0011.39,0010.69
2021-09-06 08:26:00,,0830.2,5.00,0.00,29.9,28.8,00.0,39.0,31.6,11.0,0004.0,0018.12,0011.41,0010.70
2021-09-06 08:27:00,,0830.1,5.00,0.00,29.9,28.9,00.0,39.0,31.6,11.0,0003.8,0018.42,0011.42,0010.73
2021-09-06 08:28:00,,0830.1,5.00,0.00,29.9,28.9,00.0,39.0,31.6,10.8,0003.4,0018.60,0011.45,0010.74
2021-09-06 08:29:00,,0830.2,5.01,0.00,29.9,28.9,00.0,39.0,31.7,10.1,0003.4,0019.07,0011.47,0010.74
2021-09-06 08:30:00,,0830.1,4.99,0.00,29.9,29.0,00.0,39.0,31.7,09.9,0003.4,0018.59,0011.42,0010.71
2021-09-06 08:31:00,,0830.1,5.00,0.00,30.0,29.0,00.0,39.0,31.8,09.8,0003.2,0018.11,0011.35,0010.68
2021-09-06 08:32:00,,0830.1,4.99,0.00,30.0,29.0,00.0,39.0,31.8,09.8,0003.1,0018.04,0011.34,0010.66
2021-09-06 08:33:00,,0830.1,5.01,0.00,30.0,29.0,00.0,39.0,31.8,09.7,0002.9,0017.47,0011.29,0010.62
2021-09-06 08:34:00,,0830.1,5.00,0.00,30.0,29.1,00.0,39.0,31.8,09.7,0002.7,0017.38,0011.22,0010.56
2021-09-06 08:35:00,,0830.1,5.01,0.00,30.0,29.1,00.0,39.1,31.8,09.7,0002.2,0017.49,0011.23,0010.54
2021-09-06 08:36:00,,0830.1,5.01,0.00,30.1,29.1,00.0,39.1,31.8,09.7,0001.9,0017.04,0011.21,0010.52
2021-09-06 08:37:00,,0830.1,5.00,0.00,30.1,29.2,00.0,39.1,31.9,09.6,0002.1,0016.54,0011.16,0010.49
2021-09-06 08:38:00,,0830.1,4.99,0.00,30.1,29.2,00.0,39.1,31.9,09.6,0002.4,0016.76,0011.09,0010.45
2021-09-06 08:39:00,,0830.1,5.00,0.00,30.1,29.2,00.0,39.1,31.9,09.6,0002.6,0016.76,0011.04,0010.41
2021-09-06 08:40:00,,0830.1,5.01,0.00,30.2,29.2,00.0,39.1,31.9,09.5,0002.1,0016.70,0011.02,0010.41
2021-09-06 08:41:00,,0830.1,5.00,0.00,30.2,29.2,00.0,39.2,32.0,09.3,0002.1,0016.74,0010.99,0010.37
2021-09-06 08:42:00,,0830.1,5.00,0.00,30.2,29.2,00.0,39.2,32.0,09.2,0002.0,0016.99,0010.95,0010.32
2021-09-06 08:43:00,,0830.1,4.99,0.00,30.2,29.2,00.0,39.2,31.9,09.3,0002.0,0016.53,0010.84,0010.25
2021-09-06 08:44:00,,0830.1,5.01,0.00,30.2,29.3,00.0,39.2,32.0,09.2,0002.5,0016.39,0010.76,0010.18
2021-09-06 08:45:00,,0830.1,5.00,0.00,30.2,29.3,00.0,39.2,32.0,09.2,0002.8,0016.34,0010.69,0010.11
2021-09-06 08:46:00,,0830.1,5.00,0.00,30.3,29.3,00.0,39.3,32.0,09.2,0003.4,0016.19,0010.60,0010.04
2021-09-06 08:47:00,,0830.1,5.00,0.00,30.3,29.3,00.0,39.3,32.0,09.0,0004.2,0016.30,0010.48,0009.92
2021-09-06 08:48:00,,0830.1,4.99,0.00,30.3,29.3,00.0,39.3,32.0,09.0,0004.2,0016.20,0010.35,0009.82
2021-09-06 08:49:00,,0830.1,5.01,0.00,30.3,29.3,00.0,39.3,32.0,09.0,0004.5,0015.43,0010.27,0009.74
2021-09-06 08:50:00,,0830.1,5.00,0.00,30.3,28.4,00.0,39.3,31.8,08.9,0004.3,0015.02,0010.17,0009.66
2021-09-06 08:51:00,,0830.1,5.00,0.00,30.1,26.4,00.0,39.2,31.2,09.0,0004.3,0014.43,0010.06,0009.54
2021-09-06 08:52:00,,0830.1,5.00,0.00,30.0,26.3,00.0,39.2,31.2,09.1,0004.2,0014.84,0010.06,0009.49
2021-09-06 08:53:00,,0830.0,4.99,0.00,29.9,26.6,00.0,39.2,31.2,09.1,0004.5,0014.62,0010.02,0009.44
2021-09-06 08:54:00,,0830.1,5.00,0.00,29.8,27.1,00.0,39.1,31.2,09.0,0004.3,0014.85,0009.98,0009.40
2021-09-06 08:55:00,,0830.1,5.01,0.00,29.8,27.4,00.0,39.1,31.3,09.7,0003.4,0015.28,0009.96,0009.36
2021-09-06 08:56:00,,0830.1,5.00,0.00,29.8,27.7,00.0,39.1,31.4,10.1,0002.8,0015.27,0009.91,0009.33
2021-09-06 08:57:00,,0830.1,5.00,0.00,29.8,28.0,00.0,39.0,31.4,10.1,0002.6,0015.23,0009.89,0009.33
2021-09-06 08:58:00,,0830.1,4.99,0.00,29.8,28.2,00.0,39.0,31.5,10.2,0002.6,0015.11,0009.93,0009.36
2021-09-06 08:59:00,,0830.1,5.01,0.00,29.8,28.3,00.0,39.0,31.5,09.6,0002.4,0014.95,0009.92,0009.34
